{"data":{"norad_id":56169,"epoch":"2026-09-21T14:19:19.033248Z","epoch_age_seconds":92447,"freshness":"FRESH","line1":"1 56169U 23050H   26264.59674807  .00000012  00000+0  44221-6 0  9994","line2":"2 56169  81.0059 338.9222 0007581  61.4639 298.7279 13.85153071175462","mean_motion":13.85153071,"eccentricity":0.0007581,"inclination_deg":81.0059,"raan_deg":338.9222,"arg_perigee_deg":61.4639,"mean_anomaly_deg":298.7279,"bstar":4.4221e-7,"rev_number":17546,"period_min":103.95962945528,"perigee_km":940.11395913613,"apogee_km":951.21830944834,"semimajor_km":7323.8031342922,"source":"CELESTRAK","updated_at":"2026-09-22T09:00:25.732701Z"}}